Weather in Kriusha

Russia / Ryazan Oblast     54°56′48″N   39°57′53″E
temp.,
°C
wind,
m/s
gust,
m/s
humid.,
%
clouds,
%
prec.,
mm/h
press.,
hPa
HPBL,
m
6 august, fri
fri600:00+19se2856100 0.0 1014201
03:00+15sw2578100 0.1 101480
06:00+17sse247585 0.2 1014111
09:00+21se2567100 0.4 1013408
12:00+25ssw3447100 0.0 1013984
15:00+20n2370100 0.1 101357
18:00+21ene4106616 0.0 1011368
21:00+19e4137199 0.0 1010352
7 august, sat
sat700:00+18ese3106813 0.0 1009183
03:00+20sse3136480 0.3 1009346
06:00+17sse3138726 0.7 1010293
09:00+24s4105029 1.8 1010558
12:00+29s583160 0.0 10111261
15:00+32s48267 0.0 10112426
18:00+22nne2266100 0.1 101141
21:00+22e3857100 0.1 1011155
8 august, sun
sun800:00+23se41549100 0.0 1012460
03:00+23sse41344100 0.0 1013395
06:00+20sse3958100 0.0 1013191
09:00+22s3649100 0.0 1014263
12:00+26sw2342100 0.0 1015657
15:00+26wsw1256100 0.0 1015582
18:00+26n2364100 0.0 1015199
21:00+21nnw2275100 0.0 101732
9 august, mon
mon900:00+21nne226471 0.0 101832
03:00+19nnw116969 0.0 101811
06:00+19nw11745 0.0 101923
09:00+26w115054 0.0 1019493
12:00+30wsw124033 0.0 10191148
15:00+30sw2438100 0.0 10191103
18:00+28se1150100 0.0 101821
21:00+23sw2855100 0.1 1019164
10 august, tue
tue1000:00+23wnw3650100 0.1 1019121
03:00+22nne2254100 0.1 101934
06:00+21ne2566100 0.0 1019128
09:00+21ene1370100 0.0 101980
12:00+21wsw2379100 0.3 1019160
15:00+19n3786100 0.5 1019257
18:00+19nne41086100 0.0 1018398
21:00+19ne51387100 0.4 1017518